Wind_Speed
8 4 14 18 14 15 9 9 16 5 9 6 18 11 3 4 8 14 17 22 25 31 32 32 34 35 37 37 34 34 33 32 32 31 30 28 27 26 23 25 23 21 21 18
6 5 15 16 15 10 14 12 11 4 6 10 5 10 2 6 5 2 13 22 26 25 25 29 31 33 36 38 36 35 34 33 33 32 31 29 27 25 24 23 24 22 22 21
3 8 11 12 15 13 8 12 9 6 2 0 7 2 7 4 9 10 12 17 20 22 24 25 28 30 33 38 38 38 35 33 31 29 29 28 28 26 24 24 24 24 21 20
4 9 12 10 13 8 14 8 12 12 8 10 10 6 9 5 6 9 11 13 15 18 19 23 25 28 30 32 34 35 36 34 32 28 27 25 30 27 25 22 20 21 22 23
6 11 15 7 8 12 6 10 10 11 11 5 8 4 4 7 5 6 9 11 14 16 18 19 21 23 25 28 30 32 33 31 30 26 25 24 23 24 21 20 19 19 21 20
6 9 4 4 16 10 12 8 9 6 6 9 10 14 5 5 1 6 9 12 13 15 18 19 19 20 22 23 26 28 30 30 32 30 27 26 25 25 24 23 23 21 20 18
9 3 4 12 8 3 13 4 5 6 8 7 14 12 4 6 8 10 13 14 13 15 18 19 19 20 20 21 22 28 28 27 28 29 30 28 28 28 25 27 28 27 23 22
5 7 7 9 4 6 6 4 4 14 7 13 16 7 4 7 14 17 17 16 16 16 16 17 17 18 17 18 19 23 24 25 27 29 28 31 29 29 30 29 30 30 30 29
4 5 3 7 3 6 6 3 2 4 5 7 5 3 5 9 10 15 15 17 17 16 15 15 15 15 15 15 16 19 20 21 23 23 23 24 26 27 28 30 31 30 30 29
4 6 5 4 4 9 6 5 0 1 5 4 4 4 4 8 8 9 12 15 14 14 14 14 14 13 12 12 14 14 16 16 17 19 20 21 22 23 24 24 25 27 27 27
4 0 6 6 7 2 7 5 4 2 2 1 5 2 6 6 10 11 13 14 14 14 15 14 13 11 10 9 10 11 12 13 14 15 16 17 18 19 20 21 22 22 24 25
3 1 3 2 2 3 4 9 2 2 4 3 2 2 7 12 14 14 14 14 14 14 15 14 12 11 9 9 8 8 9 10 11 12 13 14 14 15 16 16 17 18 20 21
6 3 4 3 2 4 5 14 11 3 3 3 1 3 6 15 16 15 15 14 14 14 14 14 12 12 10 9 7 6 6 7 7 8 10 13 14 15 15 16 17 17 17 18
5 5 3 3 2 3 5 14 16 2 2 3 6 10 9 10 11 13 13 14 15 15 14 13 13 13 11 9 7 5 4 4 5 7 8 9 9 11 13 15 15 16 18 17
3 3 3 4 6 8 13 14 15 16 8 3 6 9 8 10 11 14 13 13 14 15 15 15 14 13 12 10 9 6 4 2 3 4 6 8 10 10 9 9 11 13 15 18
5 2 5 4 6 7 11 16 12 12 9 8 11 9 6 12 14 15 14 13 14 14 14 14 13 12 11 13 11 8 6 3 1 2 4 6 8 9 11 12 10 10 11 13
4 2 2 2 4 8 2 10 10 4 9 3 4 2 8 7 10 11 12 13 12 12 12 13 14 13 12 11 13 10 8 5 4 2 3 4 6 9 12 13 13 12 12 14
3 1 2 2 4 4 3 3 2 7 6 7 5 6 6 5 2 6 10 10 9 10 11 12 13 12 12 12 10 10 9 7 6 5 4 5 6 6 9 12 13 12 14 13
5 2 3 2 2 2 1 4 4 4 2 5 6 6 8 8 5 2 7 8 9 9 9 9 11 10 10 10 11 10 9 9 8 7 7 7 7 6 7 10 12 12 13 14
5 4 3 1 3 1 4 3 6 2 2 4 4 7 9 11 4 2 9 9 9 9 9 9 11 11 9 8 10 10 11 10 9 8 7 8 9 9 9 9 10 13 15 15
5 4 3 3 2 3 3 8 1 1 2 4 4 5 7 3 3 10 9 7 9 9 9 9 8 10 11 11 10 10 11 12 12 11 10 9 9 10 11 11 12 11 14 15
1 2 1 1 2 1 4 2 4 2 3 3 4 4 5 7 9 8 8 9 9 9 9 8 9 9 10 11 11 10 11 13 13 12 12 10 9 9 10 11 13 14 13 14
2 4 3 5 3 1 4 1 1 4 6 6 7 7 9 8 7 8 9 9 8 9 9 9 10 9 10 10 10 11 11 12 14 13 12 11 10 10 11 11 12 13 14 16
2 3 2 4 3 6 4 8 7 6 7 8 10 10 9 9 9 8 8 7 8 9 10 10 11 11 10 11 10 11 12 13 14 14 13 12 10 9 9 10 11 12 12 13
2 5 3 5 8 8 5 7 9 11 12 12 11 10 8 9 8 10 9 8 8 9 9 10 11 12 11 12 11 11 12 12 13 14 15 14 12 12 10 9 10 10 11 12
8 5 3 4 5 4 5 4 6 9 10 9 11 9 8 10 9 9 8 8 10 9 9 10 10 11 12 12 12 12 12 13 13 14 15 16 15 14 14 13 8 7 10 11
Wind_Direction
334 259 226 242 253 246 219 223 229 194 200 164 213 207 241 172 196 176 171 165 171 179 177 182 184 185 189 186 184 185 182 185 185 188 191 194 192 188 192 193 192 189 187 187
3 293 350 324 298 271 235 184 211 228 193 186 208 212 111 41 61 50 177 160 171 168 170 176 182 184 187 185 186 185 185 187 190 194 196 195 192 194 195 194 192 192 191 197
234 291 344 353 321 282 261 239 171 173 65 144 129 214 190 80 70 50 74 140 157 164 165 167 176 176 182 188 185 186 187 190 195 199 201 203 197 192 194 198 198 197 196 199
285 345 348 336 309 307 266 217 242 174 151 202 194 219 212 146 102 58 51 79 110 142 151 156 161 168 173 177 183 186 189 191 196 201 203 210 202 196 196 197 198 200 201 200
296 326 334 340 313 343 299 322 224 214 188 134 201 195 165 138 156 114 68 76 96 117 128 132 144 152 161 167 176 183 185 189 196 198 198 198 193 194 201 204 214 217 216 217
288 312 308 332 304 276 277 300 227 220 190 215 186 198 190 179 171 132 93 79 85 105 117 123 129 137 147 161 168 179 186 185 192 201 204 205 203 202 207 205 214 226 221 217
330 328 19 359 333 338 15 251 184 225 206 200 169 196 96 23 39 125 114 93 80 96 102 114 121 126 134 149 162 171 183 189 193 195 199 210 211 212 213 215 218 221 220 225
352 333 8 350 47 320 309 305 308 205 203 187 163 188 99 83 79 83 83 86 88 84 92 98 104 115 123 136 150 159 171 180 190 199 203 207 212 215 218 220 224 229 233 233
350 285 19 56 41 14 333 351 297 283 252 174 116 49 84 98 80 81 78 73 66 75 83 87 97 110 114 121 134 149 159 169 179 188 198 205 211 217 220 223 225 228 231 233
265 291 4 24 54 360 38 349 278 244 217 207 18 73 105 138 108 87 72 65 60 67 75 80 85 93 105 113 126 141 152 161 173 188 196 205 212 217 220 222 226 228 227 227
253 168 308 31 20 345 355 19 332 270 232 135 137 50 310 145 101 89 76 68 62 59 62 68 75 82 92 101 117 131 145 155 168 181 192 200 208 215 220 222 226 228 227 226
283 52 314 247 265 146 132 353 279 312 4 359 50 80 349 91 96 89 81 76 64 60 55 58 64 71 79 87 103 118 132 144 159 173 184 195 203 208 216 217 218 221 225 227
336 10 338 345 1 45 35 349 336 218 273 41 76 147 61 72 74 75 73 64 63 57 48 47 51 54 61 67 78 95 120 138 158 175 184 194 201 206 209 213 218 223 227 244
44 19 20 120 200 289 359 11 8 327 22 104 40 99 70 69 73 69 67 63 57 51 45 41 39 39 43 46 53 70 92 123 159 175 191 197 202 209 212 212 216 221 228 229
68 107 81 132 137 66 48 26 20 34 21 51 105 73 40 44 49 53 57 54 50 43 37 34 31 31 30 34 35 40 50 86 149 185 194 202 204 203 205 213 225 232 231 230
350 206 183 194 154 66 47 27 28 23 9 52 70 58 18 47 52 46 40 43 41 34 29 26 27 25 25 25 23 22 20 20 40 200 214 218 216 211 212 218 224 227 238 252
358 329 214 269 289 273 40 0 31 67 31 358 59 46 3 41 44 35 34 32 29 22 18 18 21 20 20 19 16 12 10 4 348 308 261 243 232 225 223 225 228 235 249 251
332 291 36 288 360 31 245 15 43 82 44 35 43 25 16 351 56 39 29 19 13 10 5 11 7 14 17 15 11 8 0 355 344 326 298 274 259 247 234 229 232 233 238 253
42 95 70 86 61 258 233 23 0 0 27 12 354 3 350 330 280 263 3 2 351 353 347 355 347 359 7 9 10 7 360 352 344 330 311 291 275 262 250 239 236 244 243 243
20 85 99 55 92 17 244 321 332 275 186 37 355 349 348 337 198 109 350 345 332 330 337 338 341 346 348 356 2 5 4 356 346 339 329 307 292 281 270 260 251 242 242 243
342 359 73 5 93 288 250 319 9 327 16 355 7 354 339 351 318 307 320 324 312 323 331 330 333 339 337 342 346 350 356 355 353 348 340 329 309 292 281 269 262 257 247 244
176 82 330 334 46 318 350 354 136 251 332 331 345 341 322 311 316 315 317 314 319 326 332 331 335 336 335 332 334 339 343 344 348 347 341 333 320 304 294 281 270 262 257 253
17 175 211 166 225 235 302 279 232 329 318 323 321 328 323 323 325 321 324 326 327 327 336 333 333 330 335 332 329 331 336 339 342 343 341 332 326 317 309 294 282 272 264 257
291 170 196 32 280 242 265 242 258 295 327 310 314 319 317 319 326 329 329 329 329 331 333 333 335 328 330 336 331 330 333 335 338 342 340 335 331 328 319 307 295 284 275 264
184 143 193 263 277 279 249 244 257 265 287 307 299 306 309 313 329 325 332 333 330 331 331 328 331 331 333 335 334 326 329 331 333 338 342 340 339 333 329 327 313 291 279 275
189 196 153 233 213 216 263 260 276 267 278 282 293 293 291 298 311 311 323 324 329 335 331 331 328 327 328 331 334 326 325 329 335 333 339 345 343 339 336 330 317 304 288 283
Height
1451 1446 1439 1437 1437 1432 1431 1433 1433 1440 1439 1443 1441 1446 1443 1446 1449 1452 1455 1459 1464 1469 1473 1479 1485 1491 1498 1504 1511 1515 1521 1527 1532 1537 1542 1548 1552 1556 1561 1566 1571 1575 1579 1582
1460 1451 1454 1445 1440 1437 1432 1427 1433 1439 1436 1439 1442 1442 1448 1450 1454 1455 1456 1459 1463 1468 1471 1476 1482 1488 1494 1501 1507 1513 1519 1524 1530 1535 1539 1544 1550 1555 1559 1564 1568 1572 1576 1580
1471 1459 1455 1452 1442 1437 1433 1426 1431 1431 1437 1438 1440 1446 1444 1455 1457 1459 1458 1459 1462 1466 1470 1474 1480 1485 1492 1497 1503 1509 1516 1521 1527 1533 1538 1542 1547 1552 1556 1560 1564 1568 1573 1578
1466 1460 1457 1454 1449 1439 1432 1427 1429 1426 1432 1433 1433 1435 1443 1451 1458 1463 1465 1464 1465 1467 1470 1473 1477 1483 1489 1494 1500 1506 1512 1518 1524 1529 1535 1539 1544 1548 1552 1557 1562 1566 1570 1575
1469 1462 1461 1453 1451 1451 1433 1430 1428 1426 1427 1433 1432 1436 1439 1452 1458 1466 1470 1470 1469 1470 1471 1473 1477 1482 1486 1491 1497 1504 1509 1515 1522 1527 1532 1537 1541 1546 1551 1555 1560 1564 1567 1571
1470 1466 1463 1463 1452 1447 1441 1434 1429 1426 1423 1420 1420 1417 1445 1451 1458 1469 1473 1474 1474 1474 1474 1475 1478 1482 1485 1490 1495 1502 1506 1512 1518 1523 1529 1534 1538 1544 1548 1552 1557 1560 1564 1567
1474 1466 1465 1464 1454 1446 1451 1435 1434 1426 1410 1404 1414 1420 1459 1472 1468 1469 1473 1476 1477 1477 1477 1478 1480 1482 1486 1490 1495 1498 1504 1510 1515 1520 1525 1530 1535 1540 1545 1549 1554 1557 1561 1564
1502 1482 1474 1474 1475 1471 1464 1456 1435 1403 1393 1397 1406 1412 1464 1478 1477 1476 1478 1479 1480 1480 1480 1481 1483 1484 1488 1491 1495 1495 1502 1506 1512 1516 1522 1527 1531 1536 1540 1545 1549 1552 1556 1560
1510 1490 1475 1476 1477 1475 1471 1457 1472 1455 1425 1393 1439 1482 1481 1480 1482 1482 1484 1484 1485 1485 1485 1485 1486 1487 1490 1492 1493 1496 1500 1504 1509 1514 1517 1522 1527 1531 1535 1539 1542 1546 1550 1553
1506 1496 1479 1474 1479 1478 1478 1482 1462 1452 1429 1395 1457 1471 1476 1481 1485 1488 1489 1490 1490 1489 1489 1488 1488 1490 1491 1494 1494 1497 1500 1503 1506 1510 1515 1519 1522 1526 1530 1533 1536 1540 1543 1547
1499 1503 1487 1480 1495 1504 1492 1490 1489 1485 1475 1426 1449 1485 1489 1483 1488 1491 1494 1495 1495 1494 1493 1492 1492 1493 1493 1494 1495 1497 1499 1502 1505 1508 1512 1515 1518 1522 1525 1528 1531 1534 1538 1541
1498 1500 1502 1502 1498 1499 1503 1503 1495 1481 1464 1471 1463 1500 1492 1489 1492 1495 1497 1499 1498 1498 1497 1496 1495 1495 1495 1495 1496 1497 1499 1501 1504 1506 1509 1512 1515 1517 1520 1523 1526 1529 1532 1535
1499 1507 1519 1501 1503 1501 1510 1502 1494 1489 1485 1495 1482 1501 1497 1496 1497 1500 1501 1502 1502 1502 1501 1499 1499 1497 1497 1497 1498 1498 1499 1501 1503 1505 1507 1509 1511 1514 1516 1519 1522 1525 1527 1530
1501 1508 1505 1516 1520 1516 1514 1507 1498 1489 1482 1494 1498 1501 1502 1502 1502 1504 1505 1506 1505 1505 1504 1503 1502 1501 1501 1500 1499 1499 1500 1501 1502 1504 1506 1508 1510 1512 1513 1515 1517 1520 1522 1525
1508 1522 1516 1516 1513 1511 1511 1510 1506 1501 1498 1492 1507 1509 1511 1509 1508 1509 1509 1508 1508 1508 1508 1506 1505 1504 1503 1502 1501 1500 1500 1500 1501 1502 1504 1506 1508 1509 1510 1512 1514 1515 1517 1519
1511 1520 1512 1512 1510 1508 1512 1512 1511 1511 1512 1510 1512 1515 1516 1515 1514 1514 1513 1512 1511 1511 1511 1509 1507 1505 1504 1503 1502 1501 1500 1500 1501 1501 1502 1504 1504 1505 1507 1508 1510 1511 1513 1514
1515 1512 1510 1511 1510 1506 1516 1522 1520 1523 1522 1519 1518 1524 1521 1518 1518 1519 1517 1516 1515 1515 1514 1512 1509 1507 1506 1504 1503 1502 1501 1501 1500 1501 1501 1502 1502 1503 1504 1505 1506 1508 1509 1510
1519 1515 1516 1518 1520 1539 1525 1523 1521 1522 1524 1524 1521 1522 1523 1523 1523 1521 1519 1519 1518 1516 1516 1513 1510 1509 1508 1507 1505 1504 1502 1501 1501 1500 1499 1499 1500 1500 1501 1502 1502 1503 1505 1506
1519 1522 1529 1535 1535 1530 1522 1525 1526 1525 1522 1521 1520 1521 1522 1522 1522 1522 1521 1520 1518 1517 1516 1514 1511 1510 1508 1507 1506 1504 1503 1501 1500 1498 1497 1497 1497 1497 1497 1497 1498 1498 1500 1501
1519 1522 1524 1526 1528 1523 1531 1525 1525 1525 1520 1527 1526 1523 1523 1521 1518 1521 1522 1519 1519 1519 1516 1513 1511 1509 1508 1507 1505 1503 1502 1501 1499 1497 1495 1494 1493 1493 1493 1492 1492 1493 1495 1496
1533 1534 1542 1531 1536 1531 1527 1525 1524 1522 1527 1525 1524 1524 1523 1523 1525 1522 1520 1520 1519 1516 1513 1512 1511 1509 1507 1505 1504 1502 1500 1499 1498 1495 1493 1491 1490 1489 1489 1488 1489 1489 1490 1490
1551 1555 1543 1530 1533 1533 1527 1526 1531 1527 1524 1524 1524 1525 1525 1523 1520 1519 1519 1517 1515 1514 1511 1510 1508 1508 1506 1504 1502 1500 1498 1497 1496 1492 1490 1489 1488 1486 1485 1485 1485 1485 1485 1485
1546 1546 1549 1542 1532 1527 1526 1526 1525 1525 1524 1523 1523 1522 1521 1521 1520 1519 1515 1514 1513 1512 1510 1508 1507 1507 1505 1503 1501 1499 1496 1494 1493 1490 1487 1487 1485 1482 1481 1480 1480 1480 1479 1480
1539 1538 1544 1539 1529 1525 1525 1524 1524 1523 1523 1522 1520 1519 1518 1517 1516 1516 1515 1514 1511 1510 1508 1506 1505 1505 1503 1501 1499 1497 1494 1492 1491 1489 1487 1486 1482 1479 1479 1478 1476 1475 1475 1475
1538 1537 1539 1535 1525 1523 1522 1522 1522 1522 1521 1520 1519 1517 1516 1515 1514 1512 1511 1511 1510 1509 1507 1506 1504 1503 1501 1499 1497 1495 1492 1490 1489 1488 1487 1483 1480 1479 1477 1474 1472 1472 1471 1471
1530 1529 1536 1532 1521 1521 1520 1519 1519 1519 1518 1517 1516 1516 1515 1514 1513 1512 1511 1509 1508 1507 1506 1505 1503 1501 1499 1497 1494 1492 1490 1489 1485 1485 1483 1480 1477 1474 1473 1471 1471 1470 1467 1466